Location: Champseau
(45.8333°N, 1.7667°E)
Time: 06:37:16
(UTC+00:00)

Cosmos 2315 Rocket - Pass Details

Date: 18 April 2021
Orbit: 967 x 1001 km, 82.9° (Epoch: 15 May)

Event Time Altitude Azimuth Distance (km) Brightness Sun altitude
Exits shadow 23:10:32 59° 48° (NE) 1,142 4.3 -32.2°
Drops below altitude 10° 23:15:51 10° 13° (NNE) 2,773 7.1 -32.4°
Sets 23:18:25 0° 11° (NNE) 3,730 8.0 -32.5°
